• In Portugal
  • List of Countries
  • For 7 days
  • Water Temperature
  • Satellite Maps
  • Weather Map
  • Weather Widgets
  • user-avatar
    Login

    Hourly Weather Mardin

    Today, 20 October, Friday

    Time Temperature Precipitation Wind Pressure Humidity
    00:00 +19°C° 0 mm 1 mps 697 mmHg 22%
    01:00 +18°C° 0 mm 1 mps 697 mmHg 22%
    02:00 +18°C° 0 mm 1 mps 696 mmHg 23%
    03:00 +16°C° 0 mm 1 mps 696 mmHg 22%
    04:00 +16°C° 0 mm 1 mps 696 mmHg 23%
    05:00 +16°C° 0 mm 1 mps 696 mmHg 24%
    06:00 +15°C° 0 mm 1 mps 696 mmHg 24%
    07:00 +18°C° 0 mm 1 mps 697 mmHg 22%
    08:00 +20°C° 0 mm 1 mps 697 mmHg 20%
    09:00 +21°C° 0 mm 1 mps 698 mmHg 17%
    10:00 +23°C° 0 mm 1 mps 698 mmHg 16%
    11:00 +24°C° 0 mm 1 mps 698 mmHg 15%
    12:00 +25°C° 0 mm 1 mps 698 mmHg 14%
    13:00 +25°C° 0 mm 1 mps 698 mmHg 14%
    14:00 +26°C° 0 mm 1 mps 697 mmHg 14%
    15:00 +26°C° 0 mm 2 mps 697 mmHg 13%
    16:00 +25°C° 0 mm 2 mps 697 mmHg 15%
    17:00 +24°C° 0 mm 1 mps 697 mmHg 16%
    18:00 +23°C° 0 mm 1 mps 697 mmHg 17%
    19:00 +22°C° 0 mm 1 mps 697 mmHg 18%
    20:00 +21°C° 0 mm 1 mps 697 mmHg 19%
    21:00 +20°C° 0 mm 1 mps 697 mmHg 20%
    22:00 +20°C° 0 mm 1 mps 696 mmHg 21%
    23:00 +19°C° 0 mm 1 mps 696 mmHg 22%

    Tomorrow, 21 October, Saturday

    Time Temperature Precipitation Wind Pressure Humidity
    00:00 +19°C° 0 mm 1 mps 696 mmHg 22%
    01:00 +19°C° 0 mm 1 mps 696 mmHg 23%
    02:00 +18°C° 0 mm 1 mps 696 mmHg 23%
    03:00 +18°C° 0 mm 1 mps 696 mmHg 23%
    04:00 +16°C° 0 mm 1 mps 696 mmHg 24%
    05:00 +16°C° 0 mm 1 mps 695 mmHg 25%
    06:00 +15°C° 0 mm 1 mps 695 mmHg 26%
    07:00 +18°C° 0 mm 1 mps 696 mmHg 24%
    08:00 +20°C° 0 mm 1 mps 696 mmHg 21%
    09:00 +21°C° 0 mm 1 mps 697 mmHg 19%
    10:00 +23°C° 0 mm 1 mps 696 mmHg 18%
    11:00 +24°C° 0 mm 1 mps 696 mmHg 16%
    12:00 +25°C° 0 mm 1 mps 696 mmHg 15%
    13:00 +26°C° 0 mm 2 mps 696 mmHg 15%
    14:00 +26°C° 0 mm 2 mps 696 mmHg 14%
    15:00 +27°C° 0 mm 2 mps 695 mmHg 14%
    16:00 +25°C° 0 mm 2 mps 695 mmHg 15%
    17:00 +24°C° 0 mm 2 mps 694 mmHg 17%
    18:00 +23°C° 0 mm 1 mps 694 mmHg 18%
    19:00 +22°C° 0 mm 1 mps 694 mmHg 19%
    20:00 +21°C° 0 mm 1 mps 694 mmHg 20%
    21:00 +19°C° 0 mm 0 mps 694 mmHg 21%
    22:00 +18°C° 0 mm 0 mps 694 mmHg 22%
    23:00 +20°C° 0 mm 1 mps 694 mmHg 22%

    Day after tomorrow, 22 October, Sunday

    Time Temperature Precipitation Wind Pressure Humidity
    00:00 +19°C° 0 mm 1 mps 694 mmHg 23%
    01:00 +19°C° 0 mm 1 mps 694 mmHg 24%
    02:00 +18°C° 0 mm 1 mps 694 mmHg 24%
    03:00 +18°C° 0 mm 1 mps 693 mmHg 25%
    04:00 +16°C° 0 mm 1 mps 693 mmHg 25%
    05:00 +16°C° 0 mm 1 mps 693 mmHg 26%
    06:00 +16°C° 0 mm 1 mps 693 mmHg 26%
    07:00 +18°C° 0 mm 1 mps 694 mmHg 24%
    08:00 +20°C° 0 mm 1 mps 694 mmHg 21%
    09:00 +21°C° 0 mm 1 mps 695 mmHg 19%
    10:00 +23°C° 0 mm 1 mps 694 mmHg 18%
    11:00 +24°C° 0 mm 1 mps 694 mmHg 16%
    12:00 +25°C° 0 mm 1 mps 694 mmHg 15%
    13:00 +26°C° 0 mm 2 mps 694 mmHg 15%
    14:00 +26°C° 0 mm 2 mps 694 mmHg 14%
    15:00 +26°C° 0 mm 2 mps 693 mmHg 14%
    16:00 +25°C° 0 mm 2 mps 693 mmHg 15%
    17:00 +24°C° 0 mm 1 mps 693 mmHg 16%
    18:00 +23°C° 0 mm 1 mps 692 mmHg 17%
    19:00 +22°C° 0 mm 1 mps 693 mmHg 18%
    20:00 +21°C° 0 mm 1 mps 693 mmHg 19%
    21:00 +20°C° 0 mm 1 mps 693 mmHg 20%
    22:00 +20°C° 0 mm 1 mps 693 mmHg 21%
    23:00 +19°C° 0 mm 1 mps 693 mmHg 22%

    23 October, Monday

    Time Temperature Precipitation Wind Pressure Humidity
    00:00 +17°C° 0 mm 0 mps 693 mmHg 23%
    01:00 +18°C° 0 mm 1 mps 693 mmHg 23%
    02:00 +18°C° 0 mm 1 mps 693 mmHg 24%
    03:00 +16°C° 0 mm 1 mps 693 mmHg 25%
    04:00 +16°C° 0 mm 1 mps 693 mmHg 25%
    05:00 +16°C° 0 mm 1 mps 693 mmHg 26%
    06:00 +15°C° 0 mm 1 mps 693 mmHg 26%
    07:00 +17°C° 0 mm 2 mps 693 mmHg 24%
    08:00 +18°C° 0 mm 2 mps 694 mmHg 22%
    09:00 +20°C° 0 mm 2 mps 695 mmHg 19%
    10:00 +21°C° 0 mm 2 mps 695 mmHg 18%
    11:00 +24°C° 0 mm 2 mps 695 mmHg 17%
    12:00 +25°C° 0 mm 2 mps 695 mmHg 15%
    13:00 +26°C° 0 mm 3 mps 694 mmHg 15%
    14:00 +26°C° 0 mm 3 mps 694 mmHg 14%
    15:00 +26°C° 0 mm 3 mps 694 mmHg 13%
    16:00 +25°C° 0 mm 3 mps 694 mmHg 15%
    17:00 +24°C° 0 mm 2 mps 694 mmHg 16%
    18:00 +23°C° 0 mm 2 mps 694 mmHg 17%
    19:00 +21°C° 0 mm 2 mps 694 mmHg 18%
    20:00 +21°C° 0 mm 1 mps 694 mmHg 19%
    21:00 +20°C° 0 mm 1 mps 694 mmHg 20%
    22:00 +20°C° 0 mm 1 mps 694 mmHg 21%
    23:00 +20°C° 0 mm 1 mps 694 mmHg 21%

    24 October, Tuesday

    Time Temperature Precipitation Wind Pressure Humidity
    00:00 +19°C° 0 mm 1 mps 694 mmHg 22%
    01:00 +19°C° 0 mm 1 mps 694 mmHg 23%
    02:00 +19°C° 0 mm 1 mps 693 mmHg 23%
    03:00 +18°C° 0 mm 1 mps 693 mmHg 24%
    04:00 +18°C° 0 mm 1 mps 693 mmHg 25%
    05:00 +18°C° 0 mm 1 mps 694 mmHg 25%
    06:00 +16°C° 0 mm 1 mps 694 mmHg 26%
    07:00 +18°C° 0 mm 2 mps 694 mmHg 24%
    08:00 +19°C° 0 mm 2 mps 695 mmHg 22%
    09:00 +21°C° 0 mm 3 mps 696 mmHg 19%
    10:00 +24°C° 0 mm 3 mps 696 mmHg 18%
    11:00 +25°C° 0 mm 4 mps 696 mmHg 16%
    12:00 +27°C° 0 mm 4 mps 696 mmHg 15%
    13:00 +27°C° 0 mm 5 mps 695 mmHg 14%
    14:00 +28°C° 0 mm 5 mps 695 mmHg 14%
    15:00 +28°C° 0 mm 5 mps 695 mmHg 13%
    16:00 +27°C° 0 mm 5 mps 695 mmHg 15%
    17:00 +26°C° 0 mm 4 mps 694 mmHg 16%
    18:00 +23°C° 0 mm 4 mps 694 mmHg 18%
    19:00 +23°C° 0 mm 4 mps 695 mmHg 18%
    20:00 +23°C° 0 mm 4 mps 695 mmHg 19%
    21:00 +22°C° 0 mm 4 mps 695 mmHg 19%
    22:00 +22°C° 0 mm 4 mps 695 mmHg 20%
    23:00 +21°C° 0 mm 4 mps 695 mmHg 20%

    25 October, Wednesday

    Time Temperature Precipitation Wind Pressure Humidity
    00:00 +21°C° 0 mm 4 mps 695 mmHg 20%
    01:00 +20°C° 0 mm 4 mps 695 mmHg 21%
    02:00 +20°C° 0 mm 3 mps 695 mmHg 21%
    03:00 +19°C° 0 mm 3 mps 695 mmHg 21%
    04:00 +19°C° 0 mm 3 mps 695 mmHg 22%
    05:00 +19°C° 0 mm 3 mps 695 mmHg 23%
    06:00 +18°C° 0 mm 3 mps 696 mmHg 24%
    07:00 +20°C° 0 mm 3 mps 696 mmHg 22%
    08:00 +21°C° 0 mm 3 mps 697 mmHg 20%
    09:00 +23°C° 0 mm 4 mps 697 mmHg 18%
    10:00 +26°C° 0 mm 4 mps 697 mmHg 17%
    11:00 +27°C° 0 mm 5 mps 697 mmHg 15%
    12:00 +29°C° 0 mm 6 mps 697 mmHg 14%
    13:00 +29°C° 0 mm 6 mps 697 mmHg 13%
    14:00 +29°C° 0 mm 6 mps 696 mmHg 13%
    15:00 +30°C° 0 mm 6 mps 696 mmHg 13%
    16:00 +28°C° 0 mm 5 mps 696 mmHg 14%
    17:00 +27°C° 0 mm 3 mps 696 mmHg 16%
    18:00 +25°C° 0 mm 2 mps 696 mmHg 17%
    19:00 +24°C° 0 mm 2 mps 696 mmHg 18%
    20:00 +24°C° 0 mm 2 mps 696 mmHg 19%
    21:00 +23°C° 0 mm 1 mps 696 mmHg 20%
    22:00 +22°C° 0 mm 1 mps 696 mmHg 21%
    23:00 +22°C° 0 mm 1 mps 696 mmHg 22%
    Show more